Columbus, OH

9:49 PM EDT on October 19, 2017 (GMT -0400)
Port Columbus International

Weather History for KCMH - February, 2014

Change the Weather History Date:

Sunday, February 23, 2014

  Actual Average Record
Temperature  
Mean Temperature 34 °F 35 °F  
Max Temperature 41 °F 43 °F 72 °F (2017)
Min Temperature 26 °F 27 °F -4 °F (1885)
Degree Days  
Heating Degree Days 31 30  
Month to date heating degree days 871 756  
Since 1 July heating degree days 4168 3848  
Cooling Degree Days 0 0  
Month to date cooling degree days 0 0  
Year to date cooling degree days 0 0  
Moisture  
Dew Point 26 °F    
Average Humidity 63    
Maximum Humidity 82    
Minimum Humidity 44    
Precipitation  
Precipitation 0.00 in 0.08 in 2.15 in (1975)
Month to date precipitation 2.38 1.84  
Year to date precipitation 4.78 4.57  
Snow  
Snow 0.00 in 0.20 in 5.20 in (1914)
Month to date snowfall 15.5 5.0  
Since 1 July snowfall 50.6 20.3  
Snow Depth 0.00 in    
Sea Level Pressure  
Sea Level Pressure 30.08 in    
Wind  
Wind Speed 7 mph (NW)    
Max Wind Speed 16 mph    
Max Gust Speed 18 mph    
Visibility 10 miles    
Events      
T = Trace of Precipitation, MM = Missing Value Source: NWS Daily Summary

Daily Weather History Graph

Daily Weather History Graph

Search for Another Location

Airport or City:

Trip Planner

Search our weather history database for the weather conditions in past years. The results will help you decide how hot, cold, wet, or windy it might be!

Date:

Astronomy

Feb. 23, 2014 Rise Set
Actual Time 7:13 AM EST 6:16 PM EST
Civil Twilight 6:46 AM EST 6:44 PM EST
Nautical Twilight 6:14 AM EST 7:15 PM EST
Astronomical Twilight 5:43 AM EST 7:46 PM EST
Moon 2:10 AM EST (2/23) 12:18 PM EST (2/23)
Length of Visible Light 11h 57m
Length of Day
11h 03m
Last Quarter, 39% of the Moon is Illuminated
Feb 23
Last Quarter
Mar 1
New
Mar 8
First Quarter
Mar 16
Full
Mar 23
Last Quarter

Hourly Weather History & Observations

Time (EST) Temp. Windchill Dew Point Humidity Pressure Visibility Wind Dir Wind Speed Gust Speed Precip Events Conditions
12:00 AM 37.4 °F 31.4 °F 30.2 °F 75% 30.03 in 10.0 mi North 8.1 mph - N/A   Overcast
12:27 AM 37.4 °F 33.8 °F 30.2 °F 75% 30.03 in 10.0 mi North 4.6 mph - N/A   Overcast
12:51 AM 37.0 °F 33.3 °F 30.0 °F 76% 30.04 in 10.0 mi North 4.6 mph - N/A   Overcast
1:51 AM 37.0 °F - 30.9 °F 79% 30.04 in 10.0 mi Calm Calm - N/A   Overcast
2:00 AM 37.4 °F - 30.2 °F 75% 30.04 in 10.0 mi Calm Calm - N/A   Overcast
2:51 AM 37.0 °F - 30.9 °F 79% 30.05 in 10.0 mi Calm Calm - N/A   Overcast
3:51 AM 36.0 °F 33.3 °F 30.0 °F 79% 30.03 in 10.0 mi East 3.5 mph - N/A   Mostly Cloudy
4:00 AM 35.6 °F 32.8 °F 30.2 °F 81% 30.02 in 10.0 mi ESE 3.5 mph - N/A   Partly Cloudy
4:51 AM 35.1 °F - 30.0 °F 82% 30.03 in 10.0 mi Calm Calm - N/A   Mostly Cloudy
5:51 AM 35.1 °F - 30.0 °F 82% 30.04 in 10.0 mi Calm Calm - N/A   Overcast
6:51 AM 35.1 °F - 30.0 °F 82% 30.06 in 10.0 mi Calm Calm - N/A   Overcast
7:51 AM 35.1 °F 32.2 °F 30.0 °F 82% 30.06 in 10.0 mi SE 3.5 mph - N/A   Overcast
8:51 AM 37.0 °F 34.5 °F 30.9 °F 79% 30.08 in 10.0 mi North 3.5 mph - N/A   Overcast
9:13 AM 37.4 °F 31.4 °F 32.0 °F 81% 30.07 in 10.0 mi NW 8.1 mph - N/A   Overcast
9:51 AM 39.0 °F 33.4 °F 32.0 °F 76% 30.11 in 10.0 mi WNW 8.1 mph - N/A   Overcast
10:39 AM 37.4 °F 29.8 °F 26.6 °F 65% 30.09 in 10.0 mi NNW 11.5 mph - N/A   Overcast
10:51 AM 37.0 °F 30.4 °F 27.0 °F 67% 30.12 in 10.0 mi NNW 9.2 mph - N/A   Overcast
11:51 AM 37.9 °F 32.7 °F 26.1 °F 62% 30.09 in 10.0 mi North 6.9 mph - N/A   Overcast
12:51 PM 37.9 °F - 27.0 °F 65% 30.08 in 10.0 mi Calm Calm - N/A   Overcast
1:51 PM 39.9 °F 33.4 °F 26.1 °F 58% 30.06 in 10.0 mi West 10.4 mph - N/A   Overcast
2:51 PM 39.9 °F 32.1 °F 19.0 °F 43% 30.07 in 10.0 mi WNW 13.8 mph - N/A   Overcast
3:51 PM 39.9 °F 32.5 °F 19.9 °F 45% 30.08 in 10.0 mi West 12.7 mph - N/A   Overcast
4:51 PM 37.9 °F 30.9 °F 19.0 °F 47% 30.08 in 10.0 mi WNW 10.4 mph - N/A   Overcast
5:51 PM 36.0 °F 27.5 °F 19.0 °F 50% 30.10 in 10.0 mi WNW 12.7 mph - N/A   Mostly Cloudy
6:51 PM 33.1 °F 26.1 °F 19.9 °F 59% 30.11 in 10.0 mi West 8.1 mph - N/A   Mostly Cloudy
7:51 PM 32.0 °F 22.5 °F 17.1 °F 54% 30.12 in 10.0 mi WNW 12.7 mph - N/A   Scattered Clouds
8:51 PM 30.0 °F 20.0 °F 16.0 °F 56% 30.14 in 10.0 mi WNW 12.7 mph - N/A   Scattered Clouds
9:51 PM 28.0 °F 19.3 °F 16.0 °F 61% 30.16 in 10.0 mi WNW 9.2 mph - N/A   Scattered Clouds
10:51 PM 28.0 °F 19.3 °F 15.1 °F 58% 30.16 in 10.0 mi WNW 9.2 mph - N/A   Mostly Cloudy
11:51 PM 27.0 °F 18.7 °F 12.9 °F 56% 30.15 in 10.0 mi WNW 8.1 mph - N/A   Scattered Clouds